Regional Weather Roundup
Issued by NWS

Home | Current Version | Previous Version | Graphics & Text | Print | Product List | Glossary On
Versions: 1 2 3 4 5 6 7 8 9 10 11 12 13 14 15 16 17 18 19 20 21 22 23 24 25 26 27 28 29 30 31 32 33 34 35 36 37 38 39 40 41 42 43 44 45 46 47 48 49 50
000
ASUS43 KMPX 201110
RWRMN
WEATHER ROUNDUP FOR MINNESOTA
NATIONAL WEATHER SERVICE TWIN CITIES/CHANHASSEN MN
600 AM CDT SUN APR 20 2014


NOTE: "FAIR" INDICATES FEW OR NO CLOUDS BELOW 12,000 FEET WITH NO
SIGNIFICANT WEATHER AND/OR OBSTRUCTIONS TO VISIBILITY. N/A MEANS
CURRENT SKY AND/OR WEATHER CONDITIONS ARE NOT AVAILABLE.

MNZ060>063-068>070-201200-
   Twin Cities Metro

CITY           SKY/WX    TMP DP  RH WIND       PRES   REMARKS
TWIN CITIES    CLOUDY    46  45  96 CALM      30.03R FOG
ST PAUL        FOG       47  47 100 CALM      30.04R VSB 1/4
CRYSTAL        FOG       43  43 100 CALM      30.02R VSB 1/4
BLAINE         FOG       46  46 100 CALM      30.03R VSB<1/4
EDEN PRAIRIE   FOG       50  48  93 CALM      30.02R VSB 1/4
LAKEVILLE      CLOUDY    48  48 100 CALM      30.02S FOG
SOUTH ST PAUL  FOG       53  52  94 CALM      30.02R VSB 1/4
LAKE ELMO      FOG       46  46 100 CALM      30.04R VSB 1/4
$$
MNZ001>005-007-008-013>017-022>024-027-028-201200-
   Northwest Minnesota

CITY           SKY/WX    TMP DP  RH WIND       PRES   REMARKS
BEMIDJI        FOG       27  26  98 CALM      30.02S VSB 3/4
HALLOCK        CLOUDY    30  28  93 CALM      30.02S
ROSEAU         CLEAR     30  27  86 W5        30.02R WCI  25
WARROAD        CLEAR     30  27  86 SW3       30.02R
THIEF RVR FALL CLEAR     30  27  86 CALM      30.02S
CROOKSTON      CLEAR     30  30 100 CALM      30.04R
FOSSTON        CLEAR     27  23  86 SE5       30.03R WCI  21
DETROIT LAKES  CLEAR     36  34  93 CALM      30.04R
MOORHEAD       CLEAR     36  36 100 S1        30.03S
PARK RAPIDS    CLEAR     32  29  88 CALM      30.03S
$$
MNZ006-009>011-018-025>026-201200-
   North Central Minnesota

CITY           SKY/WX    TMP DP  RH WIND       PRES   REMARKS
BAUDETTE       CLEAR     30  28  92 CALM      30.01R
FLAG ISLAND    CLEAR     30  28  93 W8        30.00R WCI  23
INTL FALLS     CLEAR     28  25  88 SW3       30.01R
WASKISH        CLEAR     27  27 100 SE3       30.02S
BIG FORK       CLEAR     27  27 100 CALM      30.03S
LONGVILLE      CLEAR     28  27  93 CALM      30.04R
GRAND RAPIDS   CLEAR     30  28  93 CALM      30.04R
CRANE LAKE     CLEAR     25  21  86 CALM      30.04F
ORR            CLEAR     30  28  93 CALM      30.01S FOG
COOK           CLEAR     28  28 100 CALM      30.03S
$$
MNZ012-019>021-037-201200-
   Northeast Minnesota

CITY           SKY/WX    TMP DP  RH WIND       PRES   REMARKS
DULUTH         CLEAR     36  33  89 NW7       30.02S
ELY            CLEAR     28  28 100 CALM      30.03R FOG
HIBBING        CLEAR     26  22  84 CALM      30.03R
EVELETH        CLEAR     28  28 100 CALM      30.04S
DULUTH HARBOR  CLEAR     28  27  93 CALM      30.06R
TWO HARBORS    CLEAR     30  27  86 CALM      30.00S
SILVER BAY     CLEAR     21  21 100 CALM      30.00S
GRAND MARAIS     N/A     31  29  92 CALM      30.01R
G MARAIS ARPRT CLEAR     37  34  87 W7        30.00R
$$
MNZ029>031-032-039>041-046>048-054>057-064-201200-
   West Central Minnesota

CITY           SKY/WX    TMP DP  RH WIND       PRES   REMARKS
FERGUS FALLS   CLEAR     43  32  65 CALM      30.00S
WHEATON        CLEAR     39  37  93 CALM      30.06S
MORRIS         CLEAR     39  34  81 E8        30.03R
ALEXANDRIA     CLEAR     40  33  76 E6        30.05S
ELBOW LAKE     FAIR      43  35  73 E8        30.03R
WADENA         CLEAR     32  30  93 CALM      30.04R
GLENWOOD       PTCLDY    37  34  87 NE8       30.05R
APPLETON       CLEAR     34  30  86 CALM      30.03R
BENSON         PTCLDY    36  36 100 E7        30.03S
ORTONVILLE     CLEAR     37  34  87 N5        30.04R
MADISON        CLEAR     37  36  93 W7        30.03S
WILLMAR        FAIR      37  36  93 NE7       30.05R FOG
$$
MNZ033>034-036-042>043-049>051-058-059-201200-
   Central Minnesota

CITY           SKY/WX    TMP DP  RH WIND       PRES   REMARKS
ST CLOUD       CLEAR     38  35  89 N3        30.04R FOG
SAUK CENTRE    FAIR      37  32  82 CALM      30.05S
PAYNESVILLE    PTCLDY    36  33  91 CALM      30.05S
AITKIN         CLEAR     30  27  86 CALM      30.03S FOG
PINE RIVER     CLEAR     28  27  93 CALM      30.08R
BRAINERD       CLEAR     35  28  75 CALM      30.05S
STAPLES        CLEAR     34  32  93 CALM      30.05R
LONG PRAIRIE   FAIR      36  32  87 CALM      30.05R
LITTLE FALLS     N/A     32  30  93 CALM      30.05S FOG
LITCHFIELD     PTCLDY    39  39 100 NW5       30.05R FOG
BUFFALO        PTCLDY    40  38  93 CALM      30.05R FOG
MAPLE LAKE     PTCLDY    42  41  99 NW3       30.05R
$$
MNZ037-044-045-052-053-201200-
   East Central Minnesota

CITY           SKY/WX    TMP DP  RH WIND       PRES   REMARKS
PRINCETON      FOG       34  32  93 CALM      30.04S VSB 3/4
MORA           FOG       32  30  93 CALM      30.06R VSB 1/2
CAMBRIDGE      HAZE      34  28  80 CALM      30.02F VSB 1/4
RUSH CITY      PTCLDY    32  31  97 CALM      30.04S FOG
MOOSE LAKE     CLEAR     27  27 100 CALM      30.02S
HINCKLEY       FOG       30  30 100 CALM      30.05R VSB<1/4
CLOQUET        CLEAR     34  34 100 NW5       30.03R WCI  30
MCGREGOR       CLEAR     32  32 100 CALM      30.04S
$$
MNZ071>073-080-081-089-090-097-098-201200-
   Southwest Minnesota

CITY           SKY/WX    TMP DP  RH WIND       PRES   REMARKS
MONTEVIDEO     CLEAR     39  34  81 NW5       30.04R
GRANITE FALLS  PTCLDY    33  31  90 SW6       30.04S WCI  28
CANBY          CLEAR     39  36  87 W7        30.05S
MARSHALL       PTCLDY    39  30  70 W6        30.03S
REDWOOD FALLS  MOCLDY    45  43  93 CALM      30.02R
OLIVIA         FOG       39  37  93 CALM      30.02S VSB 3/4
PIPESTONE      MOCLDY    46  39  76 NE5       30.01S
WINDOM         MOCLDY    50  37  62 NE5       30.02S
WORTHINGTON    MOCLDY    50  36  57 NE7       30.02F
JACKSON        MOCLDY    48  43  81 NE5       30.00F
TRACY          MOCLDY    50  42  73 CALM      30.02S
SLAYTON        MOCLDY    49  43  80 CALM      30.02F
$$
MNZ065>067-074>077-082>085-091>093-201200-
   South Central Minnesota

CITY           SKY/WX    TMP DP  RH WIND       PRES   REMARKS
MANKATO        CLOUDY    52  45  76 E6        30.01F
NEW ULM        CLOUDY    48  46  93 CALM      30.02R
ST JAMES       CLOUDY    52  45  76 N6        30.02S
FAIRMONT       CLOUDY    48  45  87 N3        30.02S
GLENCOE        MOCLDY    47  44  89 N3        30.02R FOG
FARIBAULT      CLOUDY    54  48  82 CALM      30.03R HAZE
OWATONNA       CLOUDY    54  48  82 SE7       30.01F
WASECA         CLOUDY    54  52  94 E6        30.03S FOG
ALBERT LEA     DRIZZLE   55  52  88 SE7       30.02S
$$
MNZ078>079-086>088-094>096-201200-
   Southeast Minnesota

CITY           SKY/WX    TMP DP  RH WIND       PRES   REMARKS
ROCHESTER      LGT RAIN  53  48  83 S13       30.04F
RED WING       CLOUDY    48  46  93 CALM      30.02S FOG
STANTON        FOG       49  47  93 CALM      30.01S VSB 1/4
DODGE CENTER   CLOUDY    55  52  88 S7        30.03S
WINONA           N/A    N/A N/A N/A MISG        N/A
AUSTIN         LGT RAIN  54  48  82 S3        30.04R
PRESTON        LGT RAIN  57  44  61 S10       30.07R
$$
ABBREVIATIONS USED IN REMARKS
   TC - TEMPERATURES IN CELSIUS
  WCI - WIND CHILL INDEX
   HX - HEAT INDEX
  VSB - VISIBILITY
$$



USA.gov is the U.S. government's official web portal to all federal, state and local government web resources and services.